Flag for Norway Weather past 2 weeks in Kristiansund, Norway

Now
34 °F

Passing clouds.


Feels Like: 30 °F
Forecast: 35 / 39 °F
Wind: 5 mph from South

Location: Kristiansund / Kvernberget

Current Time: Mar 3, 2015 at 6:42:02 AM

Latest Report: Mar 3, 2015 at 5:50 AM


Visibility: N/A

Pressure: 29.33 "Hg

Humidity: 65%

Dew point: 23 °F

Location of KristiansundLocation

Historic Weather in Kristiansund — Graph

°F

Kristiansund temperature yesterday

Maximum temperature yesterday: 43 °F (at 12:20 AM)
Minimum temperature yesterday: 34 °F (at 10:50 PM)
Average temperature yesterday: 38 °F

Past Weeks' High & Low Weather Summary

 TemperatureHumidityPressure
High50 °F (Feb 18, 1:20 PM)100% (Feb 18, 5:20 AM)29.98 "Hg (Feb 18, 5:20 AM)
Low28 °F (Feb 22, 6:20 PM)32% (Feb 27, 1:20 PM)28.56 "Hg (Mar 1, 6:20 PM)
Average40 °F66%29.29 "Hg
* Reported Feb 16 5:20 AM — Mar 3 5:20 AM, Kristiansund, Weather by CustomWeather, © 2015

Note: Actual official high and low records may vary slightly from our data, if they occured in-between our weather recording intervals... More about our weather records

Advertising

Kristiansund weather history for previous 24 hours

 ConditionsComfort  
Time TempWeatherWind HumidityBarometerVisibility
5:20 AM
Tue, Mar 3
34 °FPassing clouds.3 mph65%29.33 "HgN/A
4:50 AM34 °FPassing clouds.5 mph65%29.33 "HgN/A
4:20 AM34 °FChilly.6 mph65%29.33 "HgN/A
3:50 AM34 °FChilly.3 mph70%29.33 "HgN/A
3:20 AM34 °FChilly.2 mph75%29.33 "HgN/A
2:50 AM34 °FPassing clouds.5 mph75%29.30 "HgN/A
2:20 AM34 °FChilly.5 mph75%29.30 "HgN/A
1:50 AM34 °FPassing clouds.5 mph75%29.30 "HgN/A
1:20 AM34 °FChilly.6 mph75%29.30 "HgN/A
12:50 AM32 °FPassing clouds.3 mph80%29.30 "HgN/A
12:20 AM34 °FChilly.5 mph81%29.30 "HgN/A
11:50 PM
Mon, Mar 2
34 °FChilly.5 mph75%29.30 "HgN/A
11:20 PM34 °FChilly.3 mph75%29.30 "HgN/A
10:50 PM34 °FClear.3 mph70%29.27 "Hg10 mi
10:20 PM36 °FPassing clouds.7 mph65%29.27 "HgN/A
9:50 PM36 °FPassing clouds.7 mph65%29.27 "HgN/A
9:20 PM36 °FPassing clouds.6 mph65%29.24 "HgN/A
8:50 PM36 °FPassing clouds.5 mph65%29.24 "HgN/A
8:20 PM37 °FPassing clouds.6 mph65%29.24 "HgN/A
7:50 PM37 °FPassing clouds.8 mph70%29.24 "HgN/A
7:20 PM37 °FPassing clouds.10 mph70%29.21 "HgN/A
6:50 PM36 °FPassing clouds.6 mph75%29.21 "HgN/A
6:20 PM37 °FPassing clouds.7 mph75%29.21 "HgN/A
5:50 PM37 °FScattered clouds.14 mph81%29.18 "HgN/A
5:20 PM37 °FSleet. Broken clouds.20 mph81%29.18 "HgN/A
4:50 PM37 °FScattered clouds.16 mph75%29.15 "HgN/A
4:20 PM39 °FScattered showers. Scattered clouds.20 mph75%29.15 "HgN/A
3:50 PM39 °FScattered showers. Broken clouds.18 mph75%29.12 "HgN/A
3:20 PM39 °FScattered showers. Broken clouds.18 mph70%29.12 "HgN/A
2:50 PM37 °FSprinkles. Broken clouds.23 mph81%29.09 "HgN/A
2:20 PM39 °FBroken clouds.16 mph81%29.06 "HgN/A
1:50 PM41 °FScattered showers. Broken clouds.15 mph81%29.06 "HgN/A
1:20 PM37 °FScattered showers. Broken clouds.15 mph81%29.06 "HgN/A
12:50 PM36 °FSprinkles. Broken clouds.15 mph93%29.03 "HgN/A
12:20 PM37 °FSprinkles. Broken clouds.15 mph93%29.00 "HgN/A
11:50 AM37 °FSprinkles. Broken clouds.18 mph87%29.00 "HgN/A
11:20 AM37 °FSprinkles. Broken clouds.17 mph87%28.97 "HgN/A
10:50 AM39 °FBroken clouds.17 mph87%28.94 "HgN/A
10:20 AM39 °FScattered clouds.14 mph87%28.91 "HgN/A
9:50 AM39 °FScattered clouds.2 mph87%28.88 "HgN/A
9:20 AM39 °FScattered clouds.6 mph87%28.88 "HgN/A
8:50 AM37 °FScattered clouds.7 mph93%28.88 "HgN/A
8:20 AM37 °FScattered clouds.6 mph93%28.88 "HgN/A
7:50 AM37 °FScattered clouds.6 mph93%28.85 "HgN/A
7:20 AM37 °FClear.5 mph93%28.85 "Hg10 mi
6:50 AM37 °FClear.3 mph93%28.85 "Hg10 mi
6:20 AM37 °FPassing clouds.3 mph87%28.85 "HgN/A
Weather by CustomWeather, © 2015

See weather overviewHow to use our weather pages